| time (UTC) | temp F | wind direction | speed knots | gust knots | rain 1hr in | rain 24hr in | rain mn in | humidity % | barometer mb |
| 20260510221335 | 91 | 286 | 5.2 | 6.1 | 0.00 | 0.00 | 0.00 | 100 | 1017.8 |
| 20260510221327 | 89 | 298 | 2.6 | 7.8 | 0.00 | 0.00 | 0.00 | 100 | 1017.8 |
| 20260510221016 | 89 | 298 | 2.6 | 7.8 | 0.00 | 0.00 | 0.00 | 100 | 1017.8 |
| 20260510220757 | 90 | 320 | 7.8 | 11.3 | 0.00 | 0.00 | 0.00 | 100 | 1017.8 |
| 20260510220516 | 90 | 320 | 7.8 | 11.3 | 0.00 | 0.00 | 0.00 | 100 | 1017.8 |
| 20260510220123 | 90 | 298 | 2.6 | 7.0 | 0.00 | 0.00 | 0.00 | 100 | 1017.8 |
| 20260510220016 | 90 | 298 | 2.6 | 7.0 | 0.00 | 0.00 | 0.00 | 100 | 1017.8 |
| 20260510215516 | 91 | 286 | 5.2 | 6.1 | 0.00 | 0.00 | 0.00 | 100 | 1017.8 |
| 20260510215016 | 92 | 316 | 4.3 | 7.8 | 0.00 | 0.00 | 0.00 | 100 | 1017.8 |
| 20260510214909 | 90 | 285 | 3.5 | 7.8 | 0.00 | 0.00 | 0.00 | 100 | 1017.7 |
| 20260510214747 | 90 | 285 | 3.5 | 7.8 | 0.00 | 0.00 | 0.00 | 100 | 1017.7 |
| 20260510214516 | 90 | 285 | 3.5 | 7.8 | 0.00 | 0.00 | 0.00 | 100 | 1017.7 |
| 20260510214016 | 90 | 267 | 1.7 | 7.8 | 0.00 | 0.00 | 0.00 | 100 | 1017.7 |
| 20260510213516 | 91 | 281 | 0.0 | 8.7 | 0.00 | 0.00 | 0.00 | 100 | 1017.8 |
| 20260510213256 | 92 | 306 | 3.5 | 8.7 | 0.00 | 0.00 | 0.00 | 100 | 1017.8 |
| 20260510213016 | 92 | 306 | 3.5 | 8.7 | 0.00 | 0.00 | 0.00 | 100 | 1017.8 |
| 20260510212751 | 93 | 326 | 7.0 | 12.2 | 0.00 | 0.00 | 0.00 | 100 | 1017.9 |
| 20260510212516 | 93 | 326 | 7.0 | 12.2 | 0.00 | 0.00 | 0.00 | 100 | 1017.9 |
| 20260510212459 | 92 | 285 | 3.5 | 10.4 | 0.00 | 0.00 | 0.00 | 100 | 1017.8 |
| 20260510212321 | 92 | 285 | 3.5 | 10.4 | 0.00 | 0.00 | 0.00 | 100 | 1017.8 |
| 20260510212016 | 92 | 285 | 3.5 | 10.4 | 0.00 | 0.00 | 0.00 | 100 | 1017.8 |
| 20260510211641 | 92 | 277 | 4.3 | 8.7 | 0.00 | 0.00 | 0.00 | 100 | 1017.8 |
| 20260510211525 | 94 | 281 | 5.2 | 10.4 | 0.00 | 0.00 | 0.00 | 100 | 1017.8 |
| 20260510211516 | 92 | 277 | 4.3 | 8.7 | 0.00 | 0.00 | 0.00 | 100 | 1017.8 |
| 20260510211016 | 93 | 302 | 0.0 | 10.4 | 0.00 | 0.00 | 0.00 | 100 | 1017.9 |
| 20260510210516 | 94 | 281 | 5.2 | 10.4 | 0.00 | 0.00 | 0.00 | 100 | 1017.8 |
| 20260510210203 | 92 | 1 | 2.6 | 9.6 | 0.00 | 0.00 | 0.00 | 100 | 1017.8 |
| 20260510210016 | 92 | 246 | 5.2 | 7.8 | 0.00 | 0.00 | 0.00 | 100 | 1017.8 |
| 20260510205516 | 92 | 1 | 2.6 | 9.6 | 0.00 | 0.00 | 0.00 | 100 | 1017.8 |
| 20260510205255 | 91 | 324 | 4.3 | 8.7 | 0.00 | 0.00 | 0.00 | 100 | 1017.8 |
| 20260510205100 | 91 | 324 | 4.3 | 8.7 | 0.00 | 0.00 | 0.00 | 100 | 1017.8 |
| 20260510205016 | 91 | 324 | 4.3 | 8.7 | 0.00 | 0.00 | 0.00 | 100 | 1017.8 |
| 20260510204828 | 92 | 277 | 1.7 | 9.6 | 0.00 | 0.00 | 0.00 | 100 | 1017.8 |
| 20260510204516 | 92 | 277 | 1.7 | 9.6 | 0.00 | 0.00 | 0.00 | 100 | 1017.8 |
| 20260510204134 | 93 | 286 | 4.3 | 8.7 | 0.00 | 0.00 | 0.00 | 100 | 1017.8 |
| 20260510204016 | 93 | 286 | 4.3 | 8.7 | 0.00 | 0.00 | 0.00 | 100 | 1017.8 |
| 20260510203600 | 93 | 286 | 0.9 | 7.8 | 0.00 | 0.00 | 0.00 | 100 | 1017.8 |
| 20260510203517 | 93 | 285 | 4.3 | 7.8 | 0.00 | 0.00 | 0.00 | 100 | 1017.8 |
| 20260510203016 | 93 | 286 | 0.9 | 7.8 | 0.00 | 0.00 | 0.00 | 100 | 1017.8 |
| 20260510202716 | 95 | 306 | 1.7 | 9.6 | 0.00 | 0.00 | 0.00 | 100 | 1017.7 |
| 20260510202516 | 93 | 260 | 1.7 | 10.4 | 0.00 | 0.00 | 0.00 | 100 | 1017.8 |
| 20260510202016 | 93 | 275 | 1.7 | 7.8 | 0.00 | 0.00 | 0.00 | 100 | 1017.7 |
| 20260510201829 | 95 | 302 | 3.5 | 8.7 | 0.00 | 0.00 | 0.00 | 100 | 1017.8 |
| 20260510201516 | 95 | 306 | 1.7 | 9.6 | 0.00 | 0.00 | 0.00 | 100 | 1017.7 |
| 20260510201416 | 95 | 302 | 3.5 | 8.7 | 0.00 | 0.00 | 0.00 | 100 | 1017.8 |
| 20260510201016 | 95 | 302 | 3.5 | 8.7 | 0.00 | 0.00 | 0.00 | 100 | 1017.8 |
| 20260510200516 | 95 | 331 | 8.7 | 9.6 | 0.00 | 0.00 | 0.00 | 100 | 1017.7 |
| 20260510200317 | 95 | 338 | 4.3 | 8.7 | 0.00 | 0.00 | 0.00 | 100 | 1017.9 |
| 20260510200016 | 95 | 338 | 4.3 | 8.7 | 0.00 | 0.00 | 0.00 | 100 | 1017.9 |
| 20260510195516 | 96 | 299 | 2.6 | 7.8 | 0.00 | 0.00 | 0.00 | 100 | 1017.9 |
| 20260510195254 | 95 | 285 | 3.5 | 8.7 | 0.00 | 0.00 | 0.00 | 100 | 1018.0 |
| 20260510195016 | 95 | 285 | 3.5 | 8.7 | 0.00 | 0.00 | 0.00 | 100 | 1018.0 |
| 20260510194516 | 95 | 281 | 4.3 | 9.6 | 0.00 | 0.00 | 0.00 | 100 | 1017.9 |
| 20260510194316 | 94 | 253 | 3.5 | 9.6 | 0.00 | 0.00 | 0.00 | 100 | 1018.0 |
| 20260510194016 | 94 | 253 | 3.5 | 9.6 | 0.00 | 0.00 | 0.00 | 100 | 1018.0 |
| 20260510193655 | 94 | 229 | 7.0 | 10.4 | 0.00 | 0.00 | 0.00 | 100 | 1017.9 |
| 20260510193517 | 94 | 229 | 7.0 | 10.4 | 0.00 | 0.00 | 0.00 | 100 | 1017.9 |
| 20260510193242 | 95 | 267 | 2.6 | 10.4 | 0.00 | 0.00 | 0.00 | 100 | 1018.0 |
| 20260510193016 | 95 | 267 | 2.6 | 10.4 | 0.00 | 0.00 | 0.00 | 100 | 1018.0 |
| 20260510192637 | 96 | 326 | 3.5 | 11.3 | 0.00 | 0.00 | 0.00 | 100 | 1018.0 |
| 20260510192516 | 96 | 326 | 3.5 | 11.3 | 0.00 | 0.00 | 0.00 | 100 | 1018.0 |
| 20260510192018 | 93 | 254 | 4.3 | 9.6 | 0.00 | 0.00 | 0.00 | 100 | 1018.0 |
| 20260510192016 | 94 | 320 | 7.0 | 10.4 | 0.00 | 0.00 | 0.00 | 100 | 1017.9 |
| 20260510191621 | 93 | 254 | 4.3 | 9.6 | 0.00 | 0.00 | 0.00 | 100 | 1018.0 |
| 20260510191517 | 93 | 254 | 4.3 | 9.6 | 0.00 | 0.00 | 0.00 | 100 | 1018.0 |
| 20260510191156 | 94 | 275 | 6.1 | 11.3 | 0.00 | 0.00 | 0.00 | 100 | 1018.0 |
| 20260510191020 | 94 | 285 | 4.3 | 9.6 | 0.00 | 0.00 | 0.00 | 100 | 1018.1 |
| 20260510191016 | 94 | 275 | 6.1 | 11.3 | 0.00 | 0.00 | 0.00 | 100 | 1018.0 |
| 20260510190709 | 95 | 272 | 7.8 | 9.6 | 0.00 | 0.00 | 0.00 | 100 | 1018.0 |
| 20260510190516 | 95 | 272 | 7.8 | 9.6 | 0.00 | 0.00 | 0.00 | 100 | 1018.0 |
| 20260510190118 | 94 | 285 | 4.3 | 9.6 | 0.00 | 0.00 | 0.00 | 100 | 1018.1 |
| 20260510190016 | 94 | 285 | 4.3 | 9.6 | 0.00 | 0.00 | 0.00 | 100 | 1018.1 |
| 20260510185748 | 94 | 260 | 6.1 | 11.3 | 0.00 | 0.00 | 0.00 | 100 | 1018.2 |
| 20260510185517 | 94 | 260 | 6.1 | 11.3 | 0.00 | 0.00 | 0.00 | 100 | 1018.2 |
| 20260510185241 | 94 | 302 | 2.6 | 13.0 | 0.00 | 0.00 | 0.00 | 100 | 1018.2 |
| 20260510185119 | 96 | 317 | 4.3 | 9.6 | 0.00 | 0.00 | 0.00 | 100 | 1018.3 |
| 20260510185016 | 94 | 302 | 2.6 | 13.0 | 0.00 | 0.00 | 0.00 | 100 | 1018.2 |
| 20260510184603 | 95 | 229 | 4.3 | 10.4 | 0.00 | 0.00 | 0.00 | 100 | 1018.3 |
| 20260510184516 | 95 | 229 | 4.3 | 10.4 | 0.00 | 0.00 | 0.00 | 100 | 1018.3 |
| 20260510184127 | 96 | 317 | 4.3 | 9.6 | 0.00 | 0.00 | 0.00 | 100 | 1018.3 |
| 20260510184016 | 96 | 317 | 4.3 | 9.6 | 0.00 | 0.00 | 0.00 | 100 | 1018.3 |
| 20260510183948 | 94 | 257 | 5.2 | 10.4 | 0.00 | 0.00 | 0.00 | 100 | 1018.3 |
| 20260510183516 | 94 | 257 | 5.2 | 10.4 | 0.00 | 0.00 | 0.00 | 100 | 1018.3 |
| 20260510183214 | 93 | 241 | 7.0 | 11.3 | 0.00 | 0.00 | 0.00 | 100 | 1018.4 |
| 20260510183139 | 93 | 241 | 7.0 | 11.3 | 0.00 | 0.00 | 0.00 | 100 | 1018.4 |
| 20260510183016 | 93 | 241 | 7.0 | 11.3 | 0.00 | 0.00 | 0.00 | 100 | 1018.4 |
| 20260510182516 | 94 | 220 | 7.0 | 12.2 | 0.00 | 0.00 | 0.00 | 100 | 1018.4 |
| 20260510182235 | 94 | 247 | 4.3 | 13.0 | 0.00 | 0.00 | 0.00 | 100 | 1018.4 |
| 20260510182017 | 94 | 247 | 4.3 | 13.0 | 0.00 | 0.00 | 0.00 | 100 | 1018.4 |
| 20260510181603 | 94 | 223 | 6.1 | 9.6 | 0.00 | 0.00 | 0.00 | 100 | 1018.6 |
| 20260510181517 | 94 | 223 | 6.1 | 9.6 | 0.00 | 0.00 | 0.00 | 100 | 1018.6 |
| 20260510181313 | 95 | 313 | 2.6 | 8.7 | 0.00 | 0.00 | 0.00 | 100 | 1018.9 |
| 20260510181158 | 96 | 267 | 0.9 | 7.8 | 0.00 | 0.00 | 0.00 | 100 | 1018.6 |
| 20260510181017 | 96 | 267 | 0.9 | 7.8 | 0.00 | 0.00 | 0.00 | 100 | 1018.6 |
| 20260510180517 | 96 | 201 | 2.6 | 9.6 | 0.00 | 0.00 | 0.00 | 100 | 1018.7 |
| 20260510180157 | 95 | 262 | 2.6 | 9.6 | 0.00 | 0.00 | 0.00 | 100 | 1018.8 |
| 20260510180017 | 95 | 262 | 2.6 | 9.6 | 0.00 | 0.00 | 0.00 | 100 | 1018.8 |
| 20260510175517 | 94 | 274 | 9.6 | 10.4 | 0.00 | 0.00 | 0.00 | 100 | 1018.8 |
| 20260510175145 | 95 | 313 | 2.6 | 8.7 | 0.00 | 0.00 | 0.00 | 100 | 1018.9 |
| 20260510175017 | 95 | 313 | 2.6 | 8.7 | 0.00 | 0.00 | 0.00 | 100 | 1018.9 |
| 20260510174739 | 94 | 317 | 2.6 | 8.7 | 0.00 | 0.00 | 0.00 | 100 | 1019.1 |
| 20260510174636 | 95 | 317 | 7.8 | 7.8 | 0.00 | 0.00 | 0.00 | 100 | 1018.9 |
| 20260510174517 | 95 | 317 | 7.8 | 7.8 | 0.00 | 0.00 | 0.00 | 100 | 1018.9 |
| 20260510174155 | 94 | 262 | 3.5 | 5.2 | 0.00 | 0.00 | 0.00 | 100 | 1019.0 |
| 20260510174017 | 94 | 262 | 3.5 | 5.2 | 0.00 | 0.00 | 0.00 | 100 | 1019.0 |
| 20260510173517 | 94 | 317 | 2.6 | 8.7 | 0.00 | 0.00 | 0.00 | 100 | 1019.1 |
| 20260510173117 | 93 | 317 | 8.7 | 8.7 | 0.00 | 0.00 | 0.00 | 100 | 1019.2 |
| 20260510173017 | 93 | 317 | 8.7 | 8.7 | 0.00 | 0.00 | 0.00 | 100 | 1019.2 |
| 20260510172645 | 94 | 237 | 4.3 | 7.8 | 0.00 | 0.00 | 0.00 | 100 | 1019.1 |
| 20260510172517 | 94 | 237 | 4.3 | 7.8 | 0.00 | 0.00 | 0.00 | 100 | 1019.1 |
| 20260510172123 | 96 | 296 | 2.6 | 7.8 | 0.00 | 0.00 | 0.00 | 100 | 1019.2 |
| 20260510172017 | 96 | 296 | 2.6 | 7.8 | 0.00 | 0.00 | 0.00 | 100 | 1019.2 |
| 20260510171627 | 93 | 234 | 6.1 | 8.7 | 0.00 | 0.00 | 0.00 | 100 | 1019.2 |
| 20260510171517 | 93 | 234 | 6.1 | 8.7 | 0.00 | 0.00 | 0.00 | 100 | 1019.2 |
| 20260510171120 | 94 | 220 | 0.0 | 10.4 | 0.00 | 0.00 | 0.00 | 100 | 1019.2 |
| 20260510171017 | 94 | 220 | 0.0 | 10.4 | 0.00 | 0.00 | 0.00 | 100 | 1019.2 |
| 20260510170711 | 91 | 241 | 10.4 | 10.4 | 0.00 | 0.00 | 0.00 | 100 | 1019.2 |
| 20260510170604 | 91 | 241 | 10.4 | 10.4 | 0.00 | 0.00 | 0.00 | 100 | 1019.2 |
| 20260510170517 | 91 | 241 | 10.4 | 10.4 | 0.00 | 0.00 | 0.00 | 100 | 1019.2 |
| 20260510170017 | 91 | 255 | 8.7 | 8.7 | 0.00 | 0.00 | 0.00 | 100 | 1019.3 |
| 20260510165614 | 91 | 285 | 4.3 | 5.2 | 0.00 | 0.00 | 0.00 | 100 | 1019.3 |
| 20260510165546 | 89 | 233 | 1.7 | 6.1 | 0.00 | 0.00 | 0.00 | 100 | 1019.4 |
| 20260510165517 | 91 | 285 | 4.3 | 5.2 | 0.00 | 0.00 | 0.00 | 100 | 1019.3 |
| 20260510165315 | 93 | 181 | 3.5 | 5.2 | 0.00 | 0.00 | 0.00 | 100 | 1019.3 |
| 20260510165017 | 93 | 181 | 3.5 | 5.2 | 0.00 | 0.00 | 0.00 | 100 | 1019.3 |
| 20260510164959 | 91 | 237 | 2.6 | 7.0 | 0.00 | 0.00 | 0.00 | 100 | 1019.3 |
| 20260510164517 | 91 | 237 | 2.6 | 7.0 | 0.00 | 0.00 | 0.00 | 100 | 1019.3 |
| 20260510164018 | 89 | 233 | 1.7 | 6.1 | 0.00 | 0.00 | 0.00 | 100 | 1019.4 |
| 20260510163957 | 91 | 232 | 5.2 | 7.8 | 0.00 | 0.00 | 0.00 | 100 | 1019.4 |
| 20260510163650 | 90 | 284 | 4.3 | 6.1 | 0.00 | 0.00 | 0.00 | 100 | 1019.5 |
| 20260510163528 | 92 | 289 | 0.9 | 7.0 | 0.00 | 0.00 | 0.00 | 100 | 1019.4 |
| 20260510163517 | 91 | 232 | 5.2 | 7.8 | 0.00 | 0.00 | 0.00 | 100 | 1019.4 |
| 20260510163017 | 92 | 289 | 0.9 | 7.0 | 0.00 | 0.00 | 0.00 | 100 | 1019.4 |
| 20260510162948 | 91 | 265 | 4.3 | 5.2 | 0.00 | 0.00 | 0.00 | 100 | 1019.5 |
| 20260510162517 | 91 | 265 | 4.3 | 5.2 | 0.00 | 0.00 | 0.00 | 100 | 1019.5 |
| 20260510162017 | 90 | 284 | 4.3 | 6.1 | 0.00 | 0.00 | 0.00 | 100 | 1019.5 |
| 20260510161931 | 89 | 255 | 2.6 | 7.0 | 0.00 | 0.00 | 0.00 | 100 | 1019.6 |
| 20260510161517 | 90 | 254 | 3.5 | 7.8 | 0.00 | 0.00 | 0.00 | 100 | 1019.6 |
| 20260510161018 | 89 | 255 | 2.6 | 7.0 | 0.00 | 0.00 | 0.00 | 100 | 1019.6 |
| 20260510160517 | 90 | 213 | 6.1 | 7.8 | 0.00 | 0.00 | 0.00 | 100 | 1019.6 |
| 20260510160017 | 93 | 260 | 0.9 | 7.8 | 0.00 | 0.00 | 0.00 | 100 | 1019.6 |
| 20260510155733 | 89 | 264 | 5.2 | 7.0 | 0.00 | 0.00 | 0.00 | 100 | 1019.6 |
| 20260510155517 | 89 | 264 | 5.2 | 7.0 | 0.00 | 0.00 | 0.00 | 100 | 1019.6 |
| 20260510155017 | 91 | 194 | 2.6 | 7.0 | 0.00 | 0.00 | 0.00 | 100 | 1019.7 |
| 20260510154701 | 92 | 227 | 2.6 | 9.6 | 0.00 | 0.00 | 0.00 | 100 | 1019.6 |
| 20260510154517 | 92 | 227 | 2.6 | 9.6 | 0.00 | 0.00 | 0.00 | 100 | 1019.6 |
| 20260510154418 | 93 | 288 | 2.6 | 7.8 | 0.00 | 0.00 | 0.00 | 100 | 1019.6 |
| 20260510154017 | 93 | 288 | 2.6 | 7.8 | 0.00 | 0.00 | 0.00 | 100 | 1019.6 |
| 20260510153943 | 91 | 225 | 1.7 | 8.7 | 0.00 | 0.00 | 0.00 | 100 | 1019.7 |
| 20260510153517 | 91 | 225 | 1.7 | 8.7 | 0.00 | 0.00 | 0.00 | 100 | 1019.7 |
| 20260510153017 | 90 | 205 | 3.5 | 7.8 | 0.00 | 0.00 | 0.00 | 100 | 1019.7 |
| 20260510152720 | 90 | 254 | 5.2 | 7.8 | 0.00 | 0.00 | 0.00 | 100 | 1019.7 |
| 20260510152517 | 90 | 254 | 5.2 | 7.8 | 0.00 | 0.00 | 0.00 | 100 | 1019.7 |
| 20260510152325 | 90 | 257 | 3.5 | 7.8 | 0.00 | 0.00 | 0.00 | 100 | 1019.7 |
| 20260510152254 | 90 | 257 | 3.5 | 7.8 | 0.00 | 0.00 | 0.00 | 100 | 1019.7 |
| 20260510152018 | 90 | 257 | 3.5 | 7.8 | 0.00 | 0.00 | 0.00 | 100 | 1019.7 |
| 20260510151738 | 90 | 230 | 5.2 | 9.6 | 0.00 | 0.00 | 0.00 | 100 | 1019.6 |
| 20260510151518 | 90 | 230 | 5.2 | 9.6 | 0.00 | 0.00 | 0.00 | 100 | 1019.6 |
| 20260510151017 | 89 | 191 | 4.3 | 6.1 | 0.00 | 0.00 | 0.00 | 100 | 1019.5 |
| 20260510150904 | 90 | 222 | 3.5 | 7.8 | 0.00 | 0.00 | 0.00 | 100 | 1019.6 |
| 20260510150517 | 90 | 222 | 3.5 | 7.8 | 0.00 | 0.00 | 0.00 | 100 | 1019.6 |
| 20260510150331 | 89 | 213 | 7.0 | 7.8 | 0.00 | 0.00 | 0.00 | 100 | 1019.5 |
| 20260510150017 | 88 | 172 | 2.6 | 8.7 | 0.00 | 0.00 | 0.00 | 100 | 1019.5 |
| 20260510145517 | 89 | 213 | 7.0 | 7.8 | 0.00 | 0.00 | 0.00 | 100 | 1019.5 |
| 20260510145220 | 88 | 226 | 3.5 | 9.6 | 0.00 | 0.00 | 0.00 | 100 | 1019.5 |
| 20260510145017 | 88 | 226 | 3.5 | 9.6 | 0.00 | 0.00 | 0.00 | 100 | 1019.5 |
| 20260510144748 | 87 | 233 | 7.0 | 9.6 | 0.00 | 0.00 | 0.00 | 100 | 1019.5 |
| 20260510144517 | 87 | 233 | 7.0 | 9.6 | 0.00 | 0.00 | 0.00 | 100 | 1019.5 |
| 20260510144017 | 89 | 195 | 7.0 | 8.7 | 0.00 | 0.00 | 0.00 | 100 | 1019.5 |
| 20260510143945 | 87 | 180 | 5.2 | 7.0 | 0.00 | 0.00 | 0.00 | 100 | 1019.5 |
| 20260510143730 | 89 | 254 | 8.7 | 8.7 | 0.00 | 0.00 | 0.00 | 100 | 1019.5 |
| 20260510143518 | 89 | 254 | 8.7 | 8.7 | 0.00 | 0.00 | 0.00 | 100 | 1019.5 |
| 20260510143018 | 89 | 234 | 5.2 | 8.7 | 0.00 | 0.00 | 0.00 | 100 | 1019.5 |
| 20260510142518 | 87 | 210 | 4.3 | 6.1 | 0.00 | 0.00 | 0.00 | 100 | 1019.5 |
| 20260510142252 | 87 | 180 | 5.2 | 7.0 | 0.00 | 0.00 | 0.00 | 100 | 1019.5 |
| 20260510142018 | 87 | 180 | 5.2 | 7.0 | 0.00 | 0.00 | 0.00 | 100 | 1019.5 |
| 20260510141803 | 87 | 205 | 0.9 | 7.0 | 0.00 | 0.00 | 0.00 | 100 | 1019.5 |
| 20260510141518 | 87 | 205 | 0.9 | 7.0 | 0.00 | 0.00 | 0.00 | 100 | 1019.5 |
| 20260510141018 | 87 | 194 | 2.6 | 7.8 | 0.00 | 0.00 | 0.00 | 100 | 1019.3 |
| 20260510140518 | 87 | 217 | 2.6 | 5.2 | 0.00 | 0.00 | 0.00 | 100 | 1019.3 |
| 20260510140018 | 87 | 180 | 2.6 | 4.3 | 0.00 | 0.00 | 0.00 | 100 | 1019.2 |
| 20260510135843 | 87 | 157 | 2.6 | 4.3 | 0.00 | 0.00 | 0.00 | 100 | 1019.2 |
| 20260510135518 | 87 | 157 | 2.6 | 4.3 | 0.00 | 0.00 | 0.00 | 100 | 1019.2 |
| 20260510135018 | 86 | 198 | 0.0 | 4.3 | 0.00 | 0.00 | 0.00 | 100 | 1019.2 |
| 20260510135002 | 85 | 247 | 2.6 | 4.3 | 0.00 | 0.00 | 0.00 | 100 | 1019.2 |
| 20260510134518 | 85 | 247 | 2.6 | 4.3 | 0.00 | 0.00 | 0.00 | 100 | 1019.2 |
| 20260510134018 | 84 | 217 | 2.6 | 4.3 | 0.00 | 0.00 | 0.00 | 100 | 1019.2 |
| 20260510133518 | 84 | 226 | 1.7 | 2.6 | 0.00 | 0.00 | 0.00 | 100 | 1019.3 |
| 20260510133019 | 83 | 202 | 1.7 | 2.6 | 0.00 | 0.00 | 0.00 | 100 | 1019.2 |
| 20260510132518 | 82 | 57 | 0.0 | 0.0 | 0.00 | 0.00 | 0.00 | 100 | 1019.2 |
| 20260510132018 | 82 | 57 | 0.0 | 0.0 | 0.00 | 0.00 | 0.00 | 100 | 1019.3 |
| 20260510131716 | 80 | 57 | 0.0 | 0.0 | 0.00 | 0.00 | 0.00 | 100 | 1019.2 |
| 20260510131518 | 80 | 57 | 0.0 | 0.0 | 0.00 | 0.00 | 0.00 | 100 | 1019.2 |
| 20260510131246 | 80 | 57 | 0.0 | 0.0 | 0.00 | 0.00 | 0.00 | 100 | 1019.3 |
| 20260510131018 | 80 | 57 | 0.0 | 0.0 | 0.00 | 0.00 | 0.00 | 100 | 1019.3 |
| 20260510130518 | 80 | 57 | 0.0 | 0.0 | 0.00 | 0.00 | 0.00 | 100 | 1019.2 |
| 20260510130134 | 79 | 57 | 0.0 | 0.0 | 0.00 | 0.00 | 0.00 | 100 | 1019.2 |
| 20260510130018 | 79 | 57 | 0.0 | 0.0 | 0.00 | 0.00 | 0.00 | 100 | 1019.2 |
| 20260510125518 | 79 | 57 | 0.0 | 0.0 | 0.00 | 0.00 | 0.00 | 100 | 1019.1 |
| 20260510125018 | 78 | 57 | 0.0 | 0.0 | 0.00 | 0.00 | 0.00 | 100 | 1019.1 |
| 20260510124518 | 77 | 57 | 0.0 | 0.0 | 0.00 | 0.00 | 0.00 | 100 | 1019.1 |
| 20260510124018 | 77 | 57 | 0.0 | 0.0 | 0.00 | 0.00 | 0.00 | 100 | 1019.1 |
| 20260510123655 | 77 | 57 | 0.0 | 0.0 | 0.00 | 0.00 | 0.00 | 100 | 1019.1 |
| 20260510123518 | 77 | 57 | 0.0 | 0.0 | 0.00 | 0.00 | 0.00 | 100 | 1019.1 |
| 20260510123150 | 76 | 57 | 0.0 | 0.0 | 0.00 | 0.00 | 0.00 | 100 | 1019.0 |
| 20260510123018 | 76 | 57 | 0.0 | 0.0 | 0.00 | 0.00 | 0.00 | 100 | 1019.0 |
| 20260510122802 | 76 | 57 | 0.0 | 0.0 | 0.00 | 0.00 | 0.00 | 100 | 1018.9 |
| 20260510122518 | 76 | 57 | 0.0 | 0.0 | 0.00 | 0.00 | 0.00 | 100 | 1018.9 |
| 20260510122018 | 75 | 57 | 0.0 | 0.0 | 0.00 | 0.00 | 0.00 | 100 | 1018.8 |
| 20260510121518 | 75 | 57 | 0.0 | 0.0 | 0.00 | 0.00 | 0.00 | 100 | 1018.8 |
| 20260510121018 | 74 | 57 | 0.0 | 0.0 | 0.00 | 0.00 | 0.00 | 100 | 1018.8 |
| 20260510120809 | 74 | 57 | 0.0 | 0.0 | 0.00 | 0.00 | 0.00 | 100 | 1018.6 |
| 20260510120518 | 74 | 57 | 0.0 | 0.0 | 0.00 | 0.00 | 0.00 | 100 | 1018.6 |
| 20260510120018 | 74 | 57 | 0.0 | 0.0 | 0.00 | 0.00 | 0.00 | 100 | 1018.4 |
| 20260510115518 | 73 | 57 | 0.0 | 0.0 | 0.00 | 0.00 | 0.00 | 100 | 1018.4 |
| 20260510115018 | 73 | 57 | 0.0 | 0.0 | 0.00 | 0.00 | 0.00 | 100 | 1018.3 |
| 20260510114518 | 73 | 57 | 0.0 | 0.0 | 0.00 | 0.00 | 0.00 | 100 | 1018.3 |
| 20260510114018 | 73 | 57 | 0.0 | 0.0 | 0.00 | 0.00 | 0.00 | 100 | 1018.3 |
| 20260510113740 | 73 | 57 | 0.0 | 0.0 | 0.00 | 0.00 | 0.00 | 100 | 1018.0 |
| 20260510113518 | 73 | 57 | 0.0 | 0.0 | 0.00 | 0.00 | 0.00 | 100 | 1018.0 |
| 20260510113018 | 72 | 57 | 0.0 | 0.0 | 0.00 | 0.00 | 0.00 | 100 | 1017.9 |
| 20260510112518 | 72 | 57 | 0.0 | 0.0 | 0.00 | 0.00 | 0.00 | 100 | 1017.8 |
| 20260510112018 | 72 | 57 | 0.0 | 0.0 | 0.00 | 0.00 | 0.00 | 100 | 1017.7 |
| 20260510111518 | 72 | 57 | 0.0 | 0.0 | 0.00 | 0.00 | 0.00 | 100 | 1017.5 |
| 20260510111018 | 72 | 57 | 0.0 | 0.0 | 0.00 | 0.00 | 0.00 | 100 | 1017.4 |
| 20260510110518 | 72 | 57 | 0.0 | 0.0 | 0.00 | 0.00 | 0.00 | 100 | 1017.2 |
| 20260510110116 | 72 | 57 | 0.0 | 0.0 | 0.00 | 0.00 | 0.00 | 100 | 1017.0 |
| 20260510110018 | 72 | 57 | 0.0 | 0.0 | 0.00 | 0.00 | 0.00 | 100 | 1017.0 |
| 20260510105518 | 72 | 57 | 0.0 | 0.0 | 0.00 | 0.00 | 0.00 | 100 | 1017.0 |
| 20260510105018 | 72 | 57 | 0.0 | 0.0 | 0.00 | 0.00 | 0.00 | 100 | 1016.8 |
| 20260510104518 | 72 | 57 | 0.0 | 0.0 | 0.00 | 0.00 | 0.00 | 100 | 1016.7 |
| 20260510104253 | 73 | 57 | 0.0 | 0.0 | 0.00 | 0.00 | 0.00 | 100 | 1016.6 |
| 20260510104018 | 73 | 57 | 0.0 | 0.0 | 0.00 | 0.00 | 0.00 | 100 | 1016.6 |
| 20260510103720 | 73 | 57 | 0.0 | 0.9 | 0.00 | 0.00 | 0.00 | 100 | 1016.6 |
| 20260510103519 | 73 | 57 | 0.0 | 0.9 | 0.00 | 0.00 | 0.00 | 100 | 1016.6 |
| 20260510103019 | 73 | 104 | 0.0 | 3.5 | 0.00 | 0.00 | 0.00 | 100 | 1016.5 |
| 20260510102730 | 72 | 92 | 2.6 | 6.1 | 0.00 | 0.00 | 0.00 | 100 | 1016.2 |
| 20260510102656 | 72 | 92 | 2.6 | 6.1 | 0.00 | 0.00 | 0.00 | 100 | 1016.2 |
| 20260510102519 | 72 | 92 | 2.6 | 6.1 | 0.00 | 0.00 | 0.00 | 100 | 1016.2 |
| 20260510102151 | 72 | 146 | 1.7 | 5.2 | 0.00 | 0.00 | 0.00 | 100 | 1016.3 |
| 20260510102019 | 72 | 146 | 1.7 | 5.2 | 0.00 | 0.00 | 0.00 | 100 | 1016.3 |
| 20260510101557 | 72 | 170 | 3.5 | 5.2 | 0.00 | 0.00 | 0.00 | 100 | 1016.3 |
| 20260510101519 | 72 | 170 | 3.5 | 5.2 | 0.00 | 0.00 | 0.00 | 100 | 1016.3 |
| 20260510101019 | 71 | 165 | 1.7 | 4.3 | 0.00 | 0.00 | 0.00 | 100 | 1016.3 |
| 20260510100731 | 71 | 181 | 2.6 | 3.5 | 0.00 | 0.00 | 0.00 | 100 | 1016.4 |
| 20260510100519 | 71 | 181 | 2.6 | 3.5 | 0.00 | 0.00 | 0.00 | 100 | 1016.4 |
| 20260510100019 | 70 | 178 | 1.7 | 1.7 | 0.00 | 0.00 | 0.00 | 100 | 1016.5 |
| 20260510095519 | 70 | 189 | 1.7 | 2.6 | 0.00 | 0.00 | 0.00 | 100 | 1016.5 |
| 20260510095019 | 70 | 181 | 0.9 | 2.6 | 0.00 | 0.00 | 0.00 | 100 | 1016.5 |
| 20260510094519 | 70 | 164 | 0.9 | 0.9 | 0.00 | 0.00 | 0.00 | 100 | 1016.6 |
| 20260510094019 | 70 | 136 | 0.0 | 0.9 | 0.00 | 0.00 | 0.00 | 100 | 1016.6 |
| 20260510093519 | 70 | 153 | 0.9 | 0.9 | 0.00 | 0.00 | 0.00 | 100 | 1016.7 |
| 20260510093019 | 70 | 113 | 0.0 | 1.7 | 0.00 | 0.00 | 0.00 | 100 | 1016.7 |
| 20260510092519 | 70 | 122 | 0.0 | 0.9 | 0.00 | 0.00 | 0.00 | 100 | 1016.7 |
| 20260510092019 | 70 | 154 | 0.0 | 0.0 | 0.00 | 0.00 | 0.00 | 100 | 1016.7 |
| 20260510091519 | 70 | 154 | 0.0 | 0.9 | 0.00 | 0.00 | 0.00 | 100 | 1016.7 |
| 20260510091019 | 71 | 151 | 0.0 | 0.0 | 0.00 | 0.00 | 0.00 | 100 | 1016.7 |
| 20260510090603 | 70 | 151 | 0.0 | 0.0 | 0.00 | 0.00 | 0.00 | 100 | 1016.7 |
| 20260510090519 | 70 | 151 | 0.0 | 0.0 | 0.00 | 0.00 | 0.00 | 100 | 1016.7 |
| 20260510090019 | 71 | 151 | 0.0 | 0.0 | 0.00 | 0.00 | 0.00 | 100 | 1016.6 |
| 20260510085519 | 71 | 151 | 0.0 | 0.9 | 0.00 | 0.00 | 0.00 | 100 | 1016.6 |
| 20260510085331 | 71 | 78 | 0.0 | 0.9 | 0.00 | 0.00 | 0.00 | 100 | 1016.5 |
| 20260510085019 | 71 | 78 | 0.0 | 0.9 | 0.00 | 0.00 | 0.00 | 100 | 1016.5 |
| 20260510084633 | 71 | 163 | 0.9 | 0.9 | 0.00 | 0.00 | 0.00 | 100 | 1016.5 |
| 20260510084519 | 71 | 163 | 0.9 | 0.9 | 0.00 | 0.00 | 0.00 | 100 | 1016.5 |
| 20260510084019 | 71 | 50 | 0.0 | 0.9 | 0.00 | 0.00 | 0.00 | 100 | 1016.5 |
| 20260510083731 | 71 | 80 | 0.0 | 0.9 | 0.00 | 0.00 | 0.00 | 100 | 1016.5 |
| 20260510083519 | 71 | 80 | 0.0 | 0.9 | 0.00 | 0.00 | 0.00 | 100 | 1016.5 |
| 20260510083019 | 71 | 78 | 0.0 | 0.0 | 0.00 | 0.00 | 0.00 | 100 | 1016.6 |
| 20260510082712 | 71 | 78 | 0.0 | 0.0 | 0.00 | 0.00 | 0.00 | 100 | 1016.7 |
| 20260510082519 | 71 | 78 | 0.0 | 0.0 | 0.00 | 0.00 | 0.00 | 100 | 1016.6 |
| 20260510082201 | 71 | 78 | 0.0 | 0.0 | 0.00 | 0.00 | 0.00 | 100 | 1016.6 |
| 20260510082019 | 71 | 78 | 0.0 | 0.0 | 0.00 | 0.00 | 0.00 | 100 | 1016.6 |
| 20260510081519 | 71 | 78 | 0.0 | 0.0 | 0.00 | 0.00 | 0.00 | 100 | 1016.7 |
| 20260510081154 | 72 | 78 | 0.0 | 0.0 | 0.00 | 0.00 | 0.00 | 100 | 1016.7 |
| 20260510081019 | 72 | 78 | 0.0 | 0.0 | 0.00 | 0.00 | 0.00 | 100 | 1016.7 |
| 20260510080519 | 72 | 78 | 0.0 | 0.9 | 0.00 | 0.00 | 0.00 | 100 | 1016.6 |
| 20260510080057 | 72 | 70 | 0.0 | 1.7 | 0.00 | 0.00 | 0.00 | 100 | 1016.6 |
| 20260510080019 | 72 | 70 | 0.0 | 1.7 | 0.00 | 0.00 | 0.00 | 100 | 1016.6 |
| 20260510075823 | 72 | 104 | 0.9 | 1.7 | 0.00 | 0.00 | 0.00 | 100 | 1016.7 |
| 20260510075519 | 72 | 104 | 0.9 | 1.7 | 0.00 | 0.00 | 0.00 | 100 | 1016.7 |
| 20260510075309 | 72 | 99 | 0.9 | 1.7 | 0.00 | 0.00 | 0.00 | 100 | 1016.7 |
| 20260510075019 | 72 | 99 | 0.9 | 1.7 | 0.00 | 0.00 | 0.00 | 100 | 1016.7 |
| 20260510074519 | 72 | 108 | 0.9 | 0.9 | 0.00 | 0.00 | 0.00 | 100 | 1016.7 |
| 20260510074122 | 73 | 97 | 0.9 | 0.9 | 0.00 | 0.00 | 0.00 | 100 | 1016.8 |
| 20260510074019 | 73 | 97 | 0.9 | 0.9 | 0.00 | 0.00 | 0.00 | 100 | 1016.8 |
| 20260510073519 | 73 | 67 | 0.0 | 0.9 | 0.00 | 0.00 | 0.00 | 100 | 1016.8 |
| 20260510073019 | 73 | 67 | 0.9 | 3.5 | 0.00 | 0.00 | 0.00 | 100 | 1016.9 |
| 20260510072519 | 73 | 104 | 0.0 | 0.0 | 0.00 | 0.00 | 0.00 | 100 | 1016.8 |
| 20260510072019 | 73 | 227 | 0.0 | 0.0 | 0.00 | 0.00 | 0.00 | 100 | 1016.8 |
| 20260510071758 | 73 | 227 | 0.0 | 0.0 | 0.00 | 0.00 | 0.00 | 100 | 1016.9 |
| 20260510071519 | 73 | 227 | 0.0 | 0.0 | 0.00 | 0.00 | 0.00 | 100 | 1016.9 |
| 20260510071406 | 73 | 227 | 0.0 | 0.0 | 0.00 | 0.00 | 0.00 | 100 | 1016.8 |
| 20260510071019 | 73 | 227 | 0.0 | 0.0 | 0.00 | 0.00 | 0.00 | 100 | 1016.8 |
| 20260510070619 | 73 | 227 | 0.0 | 0.0 | 0.00 | 0.00 | 0.00 | 100 | 1016.8 |
| 20260510070519 | 73 | 227 | 0.0 | 0.0 | 0.00 | 0.00 | 0.00 | 100 | 1016.8 |
| 20260510070128 | 73 | 227 | 0.0 | 0.0 | 0.00 | 0.00 | 0.00 | 100 | 1016.8 |
| 20260510070019 | 73 | 227 | 0.0 | 0.0 | 0.00 | 0.00 | 0.00 | 100 | 1016.8 |
| 20260510065735 | 73 | 227 | 0.0 | 0.0 | 0.00 | 0.00 | 0.00 | 100 | 1016.9 |
| 20260510065519 | 73 | 227 | 0.0 | 0.0 | 0.00 | 0.00 | 0.00 | 100 | 1016.9 |
| 20260510065409 | 73 | 227 | 0.0 | 0.0 | 0.00 | 0.00 | 0.00 | 100 | 1017.0 |
| 20260510065019 | 73 | 227 | 0.0 | 0.0 | 0.00 | 0.00 | 0.00 | 100 | 1017.0 |
| 20260510064802 | 74 | 227 | 0.0 | 0.0 | 0.00 | 0.00 | 0.00 | 100 | 1016.9 |
| 20260510064520 | 74 | 227 | 0.0 | 0.0 | 0.00 | 0.00 | 0.00 | 100 | 1016.9 |
| 20260510064243 | 74 | 227 | 0.0 | 0.0 | 0.00 | 0.00 | 0.00 | 100 | 1017.0 |
| 20260510064019 | 74 | 227 | 0.0 | 0.0 | 0.00 | 0.00 | 0.00 | 100 | 1017.0 |
| 20260510063519 | 74 | 227 | 0.0 | 0.0 | 0.00 | 0.00 | 0.00 | 100 | 1017.0 |
| 20260510063225 | 73 | 217 | 0.0 | 0.9 | 0.00 | 0.00 | 0.00 | 100 | 1017.1 |
| 20260510063155 | 73 | 227 | 0.0 | 0.0 | 0.00 | 0.00 | 0.00 | 100 | 1017.0 |
| 20260510063020 | 73 | 227 | 0.0 | 0.0 | 0.00 | 0.00 | 0.00 | 100 | 1017.0 |
| 20260510062520 | 73 | 217 | 0.0 | 0.9 | 0.00 | 0.00 | 0.00 | 100 | 1017.1 |
| 20260510062321 | 74 | 194 | 0.0 | 0.0 | 0.00 | 0.00 | 0.00 | 100 | 1017.1 |
| 20260510062020 | 74 | 194 | 0.0 | 0.0 | 0.00 | 0.00 | 0.00 | 100 | 1017.1 |
| 20260510061633 | 74 | 194 | 0.0 | 0.0 | 0.00 | 0.00 | 0.00 | 100 | 1017.1 |
| 20260510061520 | 74 | 194 | 0.0 | 0.0 | 0.00 | 0.00 | 0.00 | 100 | 1017.1 |
| 20260510061515 | 73 | 194 | 0.0 | 0.0 | 0.00 | 0.00 | 0.00 | 100 | 1017.2 |
| 20260510061235 | 73 | 194 | 0.0 | 0.0 | 0.00 | 0.00 | 0.00 | 100 | 1017.2 |
| 20260510061020 | 73 | 194 | 0.0 | 0.0 | 0.00 | 0.00 | 0.00 | 100 | 1017.2 |
| 20260510060840 | 73 | 194 | 0.0 | 0.0 | 0.00 | 0.00 | 0.00 | 100 | 1017.2 |
| 20260510060520 | 73 | 194 | 0.0 | 0.0 | 0.00 | 0.00 | 0.00 | 100 | 1017.2 |
| 20260510060129 | 73 | 194 | 0.0 | 0.0 | 0.00 | 0.00 | 0.00 | 100 | 1017.3 |
| 20260510060020 | 73 | 194 | 0.0 | 0.0 | 0.00 | 0.00 | 0.00 | 100 | 1017.3 |
| 20260510055848 | 74 | 194 | 0.0 | 0.0 | 0.00 | 0.00 | 0.00 | 100 | 1017.3 |
| 20260510055659 | 74 | 194 | 0.0 | 0.0 | 0.00 | 0.00 | 0.00 | 100 | 1017.3 |
| 20260510055520 | 74 | 194 | 0.0 | 0.0 | 0.00 | 0.00 | 0.00 | 100 | 1017.3 |
| 20260510055133 | 74 | 194 | 0.0 | 0.0 | 0.00 | 0.00 | 0.00 | 100 | 1017.4 |
| 20260510055020 | 74 | 194 | 0.0 | 0.0 | 0.00 | 0.00 | 0.00 | 100 | 1017.4 |
| 20260510054755 | 73 | 194 | 0.0 | 0.0 | 0.00 | 0.00 | 0.00 | 100 | 1017.4 |
| 20260510054520 | 73 | 194 | 0.0 | 0.0 | 0.00 | 0.00 | 0.00 | 100 | 1017.4 |
| 20260510054020 | 73 | 194 | 0.0 | 0.0 | 0.00 | 0.00 | 0.00 | 100 | 1017.4 |
| 20260510053520 | 73 | 194 | 0.0 | 0.0 | 0.00 | 0.00 | 0.00 | 100 | 1017.5 |
| 20260510053410 | 74 | 194 | 0.0 | 0.0 | 0.00 | 0.00 | 0.00 | 100 | 1017.6 |
| 20260510053324 | 74 | 194 | 0.0 | 0.0 | 0.00 | 0.00 | 0.00 | 100 | 1017.6 |
| 20260510053020 | 74 | 194 | 0.0 | 0.0 | 0.00 | 0.00 | 0.00 | 100 | 1017.6 |
| 20260510052653 | 74 | 303 | 0.0 | 0.0 | 0.00 | 0.00 | 0.00 | 100 | 1017.7 |
| 20260510052520 | 74 | 303 | 0.0 | 0.0 | 0.00 | 0.00 | 0.00 | 100 | 1017.7 |
| 20260510052020 | 74 | 303 | 0.0 | 0.0 | 0.00 | 0.00 | 0.00 | 100 | 1017.7 |
| 20260510051520 | 74 | 303 | 0.0 | 0.0 | 0.00 | 0.00 | 0.00 | 100 | 1017.8 |
| 20260510051020 | 74 | 303 | 0.0 | 0.0 | 0.00 | 0.00 | 0.00 | 100 | 1017.9 |
| 20260510050615 | 73 | 303 | 0.0 | 0.0 | 0.00 | 0.00 | 0.00 | 100 | 1018.0 |
| 20260510050520 | 73 | 303 | 0.0 | 0.0 | 0.00 | 0.00 | 0.00 | 100 | 1017.9 |
| 20260510050231 | 73 | 303 | 0.0 | 0.0 | 0.00 | 0.00 | 0.00 | 100 | 1017.9 |
| 20260510050020 | 73 | 303 | 0.0 | 0.0 | 0.00 | 0.00 | 0.00 | 100 | 1017.9 |
| 20260510045617 | 73 | 303 | 0.0 | 0.0 | 0.00 | 0.00 | 0.00 | 100 | 1018.1 |
| 20260510045520 | 73 | 303 | 0.0 | 0.0 | 0.00 | 0.00 | 0.00 | 100 | 1018.0 |
| 20260510045020 | 73 | 303 | 0.0 | 0.0 | 0.00 | 0.00 | 0.00 | 100 | 1018.0 |
| 20260510044813 | 73 | 303 | 0.0 | 0.0 | 0.00 | 0.00 | 0.00 | 100 | 1018.1 |
| 20260510044520 | 73 | 303 | 0.0 | 0.0 | 0.00 | 0.00 | 0.00 | 100 | 1018.1 |
| 20260510044115 | 73 | 303 | 0.0 | 0.0 | 0.00 | 0.00 | 0.00 | 100 | 1018.2 |
| 20260510044020 | 73 | 303 | 0.0 | 0.0 | 0.00 | 0.00 | 0.00 | 100 | 1018.1 |
| 20260510043520 | 73 | 303 | 0.0 | 0.0 | 0.00 | 0.00 | 0.00 | 100 | 1018.2 |
| 20260510043457 | 73 | 303 | 0.0 | 0.0 | 0.00 | 0.00 | 0.00 | 100 | 1018.3 |
| 20260510043020 | 73 | 303 | 0.0 | 0.0 | 0.00 | 0.00 | 0.00 | 100 | 1018.3 |
| 20260510042520 | 72 | 303 | 0.0 | 0.0 | 0.00 | 0.00 | 0.00 | 100 | 1018.2 |
| 20260510042020 | 72 | 303 | 0.0 | 0.0 | 0.00 | 0.00 | 0.00 | 100 | 1018.2 |
| 20260510041520 | 72 | 303 | 0.0 | 0.0 | 0.00 | 0.00 | 0.00 | 100 | 1018.2 |
| 20260510041151 | 72 | 303 | 0.0 | 0.0 | 0.00 | 0.00 | 0.00 | 100 | 1018.2 |
| 20260510041020 | 72 | 303 | 0.0 | 0.0 | 0.00 | 0.00 | 0.00 | 100 | 1018.2 |
| 20260510040930 | 72 | 303 | 0.0 | 0.0 | 0.00 | 0.00 | 0.00 | 100 | 1018.2 |
| 20260510040520 | 72 | 303 | 0.0 | 0.0 | 0.00 | 0.00 | 0.00 | 100 | 1018.2 |
| 20260510040020 | 72 | 303 | 0.0 | 0.0 | 0.00 | 0.00 | 0.00 | 100 | 1018.2 |
| 20260510035520 | 72 | 303 | 0.0 | 0.0 | 0.00 | 0.00 | 0.00 | 100 | 1018.1 |
| 20260510035223 | 73 | 303 | 0.0 | 0.0 | 0.00 | 0.00 | 0.00 | 100 | 1018.0 |
| 20260510035020 | 73 | 303 | 0.0 | 0.0 | 0.00 | 0.00 | 0.00 | 100 | 1018.0 |
| 20260510034615 | 73 | 303 | 0.0 | 0.0 | 0.00 | 0.00 | 0.00 | 100 | 1018.0 |
| 20260510034520 | 73 | 303 | 0.0 | 0.0 | 0.00 | 0.00 | 0.00 | 100 | 1018.0 |
| 20260510034115 | 73 | 303 | 0.0 | 0.0 | 0.00 | 0.00 | 0.00 | 100 | 1018.0 |
| 20260510034020 | 73 | 303 | 0.0 | 0.0 | 0.00 | 0.00 | 0.00 | 100 | 1018.0 |
| 20260510033520 | 73 | 303 | 0.0 | 0.0 | 0.00 | 0.00 | 0.00 | 100 | 1018.0 |
| 20260510033343 | 73 | 303 | 0.0 | 0.0 | 0.00 | 0.00 | 0.00 | 100 | 1018.0 |
| 20260510033020 | 73 | 303 | 0.0 | 0.0 | 0.00 | 0.00 | 0.00 | 100 | 1017.9 |
| 20260510032520 | 73 | 303 | 0.0 | 0.0 | 0.00 | 0.00 | 0.00 | 100 | 1018.0 |
| 20260510032518 | 73 | 303 | 0.0 | 0.0 | 0.00 | 0.00 | 0.00 | 100 | 1017.9 |
| 20260510032020 | 73 | 303 | 0.0 | 0.0 | 0.00 | 0.00 | 0.00 | 100 | 1017.9 |
| 20260510031759 | 73 | 303 | 0.0 | 0.0 | 0.00 | 0.00 | 0.00 | 100 | 1017.9 |
| 20260510031557 | 73 | 303 | 0.0 | 0.0 | 0.00 | 0.00 | 0.00 | 100 | 1017.8 |
| 20260510031520 | 73 | 303 | 0.0 | 0.0 | 0.00 | 0.00 | 0.00 | 100 | 1017.9 |
| 20260510031458 | 73 | 303 | 0.0 | 0.0 | 0.00 | 0.00 | 0.00 | 100 | 1017.8 |
| 20260510031020 | 73 | 303 | 0.0 | 0.0 | 0.00 | 0.00 | 0.00 | 100 | 1017.8 |
| 20260510030520 | 73 | 303 | 0.0 | 0.0 | 0.00 | 0.00 | 0.00 | 100 | 1017.9 |
| 20260510030057 | 74 | 303 | 0.0 | 0.0 | 0.00 | 0.00 | 0.00 | 100 | 1017.7 |
| 20260510030020 | 74 | 303 | 0.0 | 0.0 | 0.00 | 0.00 | 0.00 | 100 | 1017.7 |
| 20260510025520 | 74 | 303 | 0.0 | 0.0 | 0.00 | 0.00 | 0.00 | 100 | 1017.7 |
| 20260510025020 | 74 | 303 | 0.0 | 0.0 | 0.00 | 0.00 | 0.00 | 100 | 1017.7 |
| 20260510024520 | 74 | 303 | 0.0 | 0.0 | 0.00 | 0.00 | 0.00 | 100 | 1017.7 |
| 20260510024020 | 74 | 303 | 0.0 | 0.0 | 0.00 | 0.00 | 0.00 | 100 | 1017.7 |
| 20260510024002 | 74 | 303 | 0.0 | 0.0 | 0.00 | 0.00 | 0.00 | 100 | 1017.6 |
| 20260510023709 | 74 | 303 | 0.0 | 0.0 | 0.00 | 0.00 | 0.00 | 100 | 1017.5 |
| 20260510023521 | 74 | 303 | 0.0 | 0.0 | 0.00 | 0.00 | 0.00 | 100 | 1017.6 |
| 20260510023021 | 74 | 303 | 0.0 | 0.0 | 0.00 | 0.00 | 0.00 | 100 | 1017.5 |
| 20260510022959 | 74 | 303 | 0.0 | 0.0 | 0.00 | 0.00 | 0.00 | 100 | 1017.5 |
| 20260510022521 | 74 | 303 | 0.0 | 0.0 | 0.00 | 0.00 | 0.00 | 100 | 1017.5 |
| 20260510022021 | 74 | 303 | 0.0 | 0.0 | 0.00 | 0.00 | 0.00 | 100 | 1017.4 |
| 20260510022012 | 74 | 303 | 0.0 | 0.0 | 0.00 | 0.00 | 0.00 | 100 | 1017.3 |
| 20260510021521 | 74 | 303 | 0.0 | 0.0 | 0.00 | 0.00 | 0.00 | 100 | 1017.3 |
| 20260510021021 | 74 | 303 | 0.0 | 0.0 | 0.00 | 0.00 | 0.00 | 100 | 1017.3 |
| 20260510020749 | 75 | 303 | 0.0 | 0.0 | 0.00 | 0.00 | 0.00 | 100 | 1017.2 |
| 20260510020521 | 75 | 303 | 0.0 | 0.0 | 0.00 | 0.00 | 0.00 | 100 | 1017.2 |
| 20260510020021 | 75 | 303 | 0.0 | 0.0 | 0.00 | 0.00 | 0.00 | 100 | 1017.2 |
| 20260510015521 | 75 | 303 | 0.0 | 0.0 | 0.00 | 0.00 | 0.00 | 100 | 1017.1 |
| 20260510015021 | 75 | 303 | 0.0 | 0.0 | 0.00 | 0.00 | 0.00 | 100 | 1017.0 |
| 20260510014616 | 75 | 303 | 0.0 | 0.0 | 0.00 | 0.00 | 0.00 | 100 | 1016.9 |
| 20260510014521 | 75 | 303 | 0.0 | 0.0 | 0.00 | 0.00 | 0.00 | 100 | 1016.9 |
| 20260510014052 | 76 | 303 | 0.0 | 0.0 | 0.00 | 0.00 | 0.00 | 100 | 1016.9 |
| 20260510014021 | 75 | 303 | 0.0 | 0.0 | 0.00 | 0.00 | 0.00 | 100 | 1016.9 |
| 20260510013616 | 76 | 303 | 0.0 | 0.0 | 0.00 | 0.00 | 0.00 | 100 | 1016.8 |
| 20260510013521 | 76 | 303 | 0.0 | 0.0 | 0.00 | 0.00 | 0.00 | 100 | 1016.9 |
| 20260510013021 | 76 | 303 | 0.0 | 0.0 | 0.00 | 0.00 | 0.00 | 100 | 1016.8 |
| 20260510012603 | 77 | 303 | 0.0 | 0.0 | 0.00 | 0.00 | 0.00 | 100 | 1016.8 |
| 20260510012521 | 76 | 303 | 0.0 | 0.0 | 0.00 | 0.00 | 0.00 | 100 | 1016.8 |
| 20260510012021 | 77 | 303 | 0.0 | 0.0 | 0.00 | 0.00 | 0.00 | 100 | 1016.8 |
| 20260510011831 | 77 | 303 | 0.0 | 0.0 | 0.00 | 0.00 | 0.00 | 100 | 1016.8 |
| 20260510011521 | 77 | 303 | 0.0 | 0.0 | 0.00 | 0.00 | 0.00 | 100 | 1016.8 |
| 20260510011319 | 78 | 303 | 0.0 | 0.0 | 0.00 | 0.00 | 0.00 | 100 | 1016.7 |
| 20260510011147 | 77 | 303 | 0.0 | 0.0 | 0.00 | 0.00 | 0.00 | 100 | 1016.7 |
| 20260510011021 | 77 | 303 | 0.0 | 0.0 | 0.00 | 0.00 | 0.00 | 100 | 1016.7 |
| 20260510010521 | 78 | 303 | 0.0 | 0.0 | 0.00 | 0.00 | 0.00 | 100 | 1016.7 |
| 20260510010153 | 80 | 303 | 0.0 | 0.0 | 0.00 | 0.00 | 0.00 | 100 | 1016.4 |
| 20260510010021 | 78 | 303 | 0.0 | 0.0 | 0.00 | 0.00 | 0.00 | 100 | 1016.6 |
| 20260510005619 | 80 | 303 | 0.0 | 0.9 | 0.00 | 0.00 | 0.00 | 100 | 1016.3 |
| 20260510005521 | 79 | 303 | 0.0 | 0.0 | 0.00 | 0.00 | 0.00 | 100 | 1016.5 |
| 20260510005500 | 80 | 315 | 0.0 | 3.5 | 0.00 | 0.00 | 0.00 | 100 | 1016.1 |
| 20260510005325 | 80 | 315 | 0.0 | 3.5 | 0.00 | 0.00 | 0.00 | 100 | 1016.1 |
| 20260510005021 | 80 | 303 | 0.0 | 0.0 | 0.00 | 0.00 | 0.00 | 100 | 1016.4 |
| 20260510004813 | 80 | 272 | 0.0 | 3.5 | 0.00 | 0.00 | 0.00 | 100 | 1016.0 |
| 20260510004521 | 80 | 303 | 0.0 | 0.9 | 0.00 | 0.00 | 0.00 | 100 | 1016.3 |
| 20260510004103 | 80 | 272 | 0.0 | 3.5 | 0.00 | 0.00 | 0.00 | 100 | 1016.0 |
| 20260510004021 | 80 | 315 | 0.0 | 3.5 | 0.00 | 0.00 | 0.00 | 100 | 1016.1 |
| 20260510003521 | 80 | 272 | 0.0 | 3.5 | 0.00 | 0.00 | 0.00 | 100 | 1016.0 |
| 20260510003445 | 81 | 246 | 2.6 | 3.5 | 0.00 | 0.00 | 0.00 | 100 | 1015.9 |
| 20260510003021 | 81 | 257 | 2.6 | 4.3 | 0.00 | 0.00 | 0.00 | 100 | 1015.9 |
| 20260510002521 | 81 | 246 | 2.6 | 3.5 | 0.00 | 0.00 | 0.00 | 100 | 1015.9 |
| 20260510002021 | 81 | 226 | 1.7 | 5.2 | 0.00 | 0.00 | 0.00 | 100 | 1015.8 |
| 20260510001521 | 82 | 254 | 2.6 | 4.3 | 0.00 | 0.00 | 0.00 | 100 | 1015.9 |
| 20260510001021 | 82 | 275 | 1.7 | 4.3 | 0.00 | 0.00 | 0.00 | 100 | 1015.9 |
| 20260510000521 | 82 | 277 | 1.7 | 3.5 | 0.00 | 0.00 | 0.00 | 100 | 1015.8 |
| 20260510000021 | 82 | 279 | 0.9 | 4.3 | 0.00 | 0.00 | 0.00 | 100 | 1015.8 |
| 20260509235932 | 83 | 271 | 1.7 | 3.5 | 0.00 | 0.00 | 0.00 | 100 | 1015.8 |
| 20260509235521 | 83 | 271 | 1.7 | 3.5 | 0.00 | 0.00 | 0.00 | 100 | 1015.8 |
| 20260509235021 | 83 | 268 | 1.7 | 4.3 | 0.00 | 0.00 | 0.00 | 100 | 1015.7 |
| 20260509234746 | 83 | 278 | 3.5 | 4.3 | 0.00 | 0.00 | 0.00 | 100 | 1015.6 |
| 20260509234521 | 83 | 277 | 1.7 | 5.2 | 0.00 | 0.00 | 0.00 | 100 | 1015.7 |
| 20260509234414 | 83 | 226 | 2.6 | 5.2 | 0.00 | 0.00 | 0.00 | 100 | 1015.5 |
| 20260509234021 | 83 | 278 | 3.5 | 4.3 | 0.00 | 0.00 | 0.00 | 100 | 1015.6 |
| 20260509233706 | 83 | 226 | 2.6 | 5.2 | 0.00 | 0.00 | 0.00 | 100 | 1015.5 |
| 20260509233521 | 83 | 226 | 2.6 | 5.2 | 0.00 | 0.00 | 0.00 | 100 | 1015.5 |
| 20260509233128 | 84 | 253 | 0.9 | 7.0 | 0.00 | 0.00 | 0.00 | 100 | 1015.5 |
| 20260509233021 | 84 | 253 | 0.9 | 7.0 | 0.00 | 0.00 | 0.00 | 100 | 1015.5 |
| 20260509232521 | 84 | 272 | 4.3 | 9.6 | 0.00 | 0.00 | 0.00 | 100 | 1015.5 |
| 20260509232021 | 84 | 237 | 0.9 | 7.0 | 0.00 | 0.00 | 0.00 | 100 | 1015.5 |
| 20260509231522 | 85 | 268 | 4.3 | 8.7 | 0.00 | 0.00 | 0.00 | 100 | 1015.4 |
| 20260509231514 | 85 | 279 | 2.6 | 8.7 | 0.00 | 0.00 | 0.00 | 100 | 1015.3 |
| 20260509231021 | 85 | 279 | 2.6 | 8.7 | 0.00 | 0.00 | 0.00 | 100 | 1015.3 |
| 20260509230521 | 85 | 240 | 5.2 | 7.0 | 0.00 | 0.00 | 0.00 | 100 | 1015.2 |
| 20260509230420 | 86 | 271 | 7.0 | 9.6 | 0.00 | 0.00 | 0.00 | 100 | 1015.1 |
| 20260509230210 | 86 | 271 | 7.0 | 9.6 | 0.00 | 0.00 | 0.00 | 100 | 1015.1 |
| 20260509230021 | 86 | 271 | 7.0 | 9.6 | 0.00 | 0.00 | 0.00 | 100 | 1015.1 |
| 20260509225521 | 86 | 262 | 7.8 | 8.7 | 0.00 | 0.00 | 0.00 | 100 | 1015.1 |
| 20260509225430 | 86 | 289 | 1.7 | 9.6 | 0.00 | 0.00 | 0.00 | 100 | 1015.0 |
| 20260509225021 | 86 | 289 | 1.7 | 9.6 | 0.00 | 0.00 | 0.00 | 100 | 1015.0 |
| 20260509224604 | 87 | 244 | 8.7 | 11.3 | 0.00 | 0.00 | 0.00 | 100 | 1015.0 |
| 20260509224521 | 87 | 244 | 8.7 | 11.3 | 0.00 | 0.00 | 0.00 | 100 | 1015.0 |
| 20260509224408 | 88 | 248 | 8.7 | 10.4 | 0.00 | 0.00 | 0.00 | 100 | 1015.0 |
| 20260509224149 | 87 | 187 | 0.9 | 8.7 | 0.00 | 0.00 | 0.00 | 100 | 1015.0 |
| 20260509224021 | 87 | 187 | 0.9 | 8.7 | 0.00 | 0.00 | 0.00 | 100 | 1015.0 |
| 20260509223522 | 87 | 223 | 8.7 | 11.3 | 0.00 | 0.00 | 0.00 | 100 | 1014.9 |
| 20260509223022 | 87 | 236 | 8.7 | 10.4 | 0.00 | 0.00 | 0.00 | 100 | 1015.0 |
| 20260509222622 | 88 | 248 | 8.7 | 10.4 | 0.00 | 0.00 | 0.00 | 100 | 1015.0 |
| 20260509222522 | 88 | 248 | 8.7 | 10.4 | 0.00 | 0.00 | 0.00 | 100 | 1015.0 |
| 20260509222149 | 88 | 244 | 1.7 | 9.6 | 0.00 | 0.00 | 0.00 | 100 | 1014.9 |
| 20260509222022 | 88 | 244 | 1.7 | 9.6 | 0.00 | 0.00 | 0.00 | 100 | 1014.9 |
| 20260509221634 | 88 | 281 | 7.8 | 9.6 | 0.00 | 0.00 | 0.00 | 100 | 1014.9 |
| 20260509221522 | 88 | 281 | 7.8 | 9.6 | 0.00 | 0.00 | 0.00 | 100 | 1014.9 |